Hourly Weather Kozylivka

Today, 24 October, Saturday

Time Temperature Precipitation Wind Pressure Humidity
00:00 +11°C° 0 mm 3 mps 742 mmHg 84%
01:00 +10°C° 0 mm 3 mps 742 mmHg 88%
02:00 +10°C° 0 mm 2 mps 743 mmHg 92%
03:00 +10°C° 0 mm 2 mps 742 mmHg 93%
04:00 +10°C° 0 mm 2 mps 742 mmHg 94%
05:00 +9°C° 0 mm 2 mps 742 mmHg 95%
06:00 +11°C° 0 mm 1 mps 742 mmHg 94%
07:00 +11°C° 0 mm 1 mps 743 mmHg 92%
08:00 +12°C° 0 mm 1 mps 743 mmHg 91%
09:00 +12°C° 0.1 mm 1 mps 743 mmHg 91%
10:00 +12°C° 0.1 mm 2 mps 743 mmHg 92%
11:00 +12°C° 0.1 mm 2 mps 743 mmHg 92%
12:00 +12°C° 0.3 mm 2 mps 742 mmHg 93%
13:00 +12°C° 0.3 mm 2 mps 742 mmHg 94%
14:00 +12°C° 0.3 mm 2 mps 742 mmHg 95%
15:00 +11°C° 0.9 mm 3 mps 742 mmHg 96%
16:00 +11°C° 0.9 mm 3 mps 741 mmHg 97%
17:00 +11°C° 0.9 mm 3 mps 741 mmHg 97%
18:00 +11°C° 0.1 mm 3 mps 741 mmHg 97%
19:00 +11°C° 0.1 mm 3 mps 741 mmHg 96%
20:00 +11°C° 0.1 mm 3 mps 741 mmHg 95%
21:00 +11°C° 0 mm 4 mps 742 mmHg 94%
22:00 +11°C° 0 mm 4 mps 742 mmHg 92%
23:00 +10°C° 0 mm 5 mps 742 mmHg 91%

Tomorrow, 25 October, Sunday

Time Temperature Precipitation Wind Pressure Humidity
00:00 +9°C° 0 mm 5 mps 742 mmHg 92%
01:00 +8°C° 0 mm 4 mps 743 mmHg 94%
02:00 +9°C° 0 mm 3 mps 744 mmHg 95%
03:00 +8°C° 0 mm 3 mps 744 mmHg 95%
04:00 +7°C° 0 mm 3 mps 744 mmHg 96%
05:00 +7°C° 0 mm 2 mps 744 mmHg 96%
06:00 +7°C° 0 mm 2 mps 745 mmHg 94%
07:00 +7°C° 0 mm 3 mps 746 mmHg 93%
08:00 +8°C° 0 mm 3 mps 746 mmHg 91%
09:00 +9°C° 0 mm 3 mps 746 mmHg 85%
10:00 +11°C° 0 mm 3 mps 747 mmHg 80%
11:00 +12°C° 0 mm 3 mps 747 mmHg 74%
12:00 +13°C° 0 mm 3 mps 747 mmHg 73%
13:00 +13°C° 0 mm 3 mps 747 mmHg 73%
14:00 +13°C° 0 mm 3 mps 747 mmHg 72%
15:00 +13°C° 0 mm 2 mps 747 mmHg 76%
16:00 +13°C° 0 mm 2 mps 747 mmHg 81%
17:00 +12°C° 0 mm 1 mps 747 mmHg 86%
18:00 +11°C° 0 mm 1 mps 748 mmHg 86%
19:00 +11°C° 0 mm 1 mps 748 mmHg 86%
20:00 +11°C° 0 mm 1 mps 749 mmHg 86%
21:00 +11°C° 0 mm 1 mps 749 mmHg 87%
22:00 +10°C° 0 mm 1 mps 749 mmHg 87%
23:00 +10°C° 0 mm 1 mps 749 mmHg 88%

Day after tomorrow, 26 October, Monday

Time Temperature Precipitation Wind Pressure Humidity
00:00 +10°C° 0 mm 1 mps 749 mmHg 88%
01:00 +10°C° 0 mm 1 mps 749 mmHg 89%
02:00 +9°C° 0 mm 2 mps 749 mmHg 89%
03:00 +8°C° 0 mm 2 mps 749 mmHg 91%
04:00 +8°C° 0 mm 2 mps 749 mmHg 92%
05:00 +7°C° 0 mm 2 mps 749 mmHg 93%
06:00 +8°C° 0 mm 2 mps 750 mmHg 93%
07:00 +8°C° 0 mm 2 mps 750 mmHg 92%
08:00 +8°C° 0 mm 2 mps 750 mmHg 91%
09:00 +9°C° 0 mm 2 mps 750 mmHg 86%
10:00 +11°C° 0 mm 3 mps 750 mmHg 81%
11:00 +12°C° 0 mm 3 mps 750 mmHg 77%
12:00 +12°C° 0 mm 3 mps 750 mmHg 75%
13:00 +13°C° 0 mm 3 mps 750 mmHg 73%
14:00 +13°C° 0 mm 3 mps 750 mmHg 71%
15:00 +12°C° 0 mm 3 mps 749 mmHg 75%
16:00 +11°C° 0 mm 3 mps 749 mmHg 80%
17:00 +10°C° 0 mm 3 mps 749 mmHg 84%
18:00 +10°C° 0 mm 3 mps 749 mmHg 84%
19:00 +9°C° 0 mm 3 mps 749 mmHg 85%
20:00 +8°C° 0 mm 4 mps 749 mmHg 85%
21:00 +9°C° 0 mm 3 mps 749 mmHg 85%
22:00 +9°C° 0 mm 3 mps 749 mmHg 84%
23:00 +9°C° 0 mm 3 mps 749 mmHg 84%

, 27 October, Tuesday

Time Temperature Precipitation Wind Pressure Humidity
00:00 +8°C° 0 mm 3 mps 750 mmHg 85%
01:00 +8°C° 0 mm 3 mps 750 mmHg 86%
02:00 +8°C° 0 mm 3 mps 750 mmHg 87%
03:00 +7°C° 0 mm 4 mps 750 mmHg 87%
04:00 +6°C° 0 mm 4 mps 750 mmHg 87%
05:00 +6°C° 0 mm 4 mps 750 mmHg 87%
06:00 +7°C° 0 mm 4 mps 750 mmHg 86%
07:00 +7°C° 0 mm 4 mps 750 mmHg 84%
08:00 +7°C° 0 mm 4 mps 750 mmHg 83%
09:00 +8°C° 0 mm 5 mps 750 mmHg 75%
10:00 +10°C° 0 mm 5 mps 750 mmHg 68%
11:00 +13°C° 0 mm 5 mps 750 mmHg 60%
12:00 +13°C° 0 mm 5 mps 750 mmHg 58%
13:00 +14°C° 0 mm 5 mps 750 mmHg 56%
14:00 +14°C° 0 mm 5 mps 750 mmHg 53%
15:00 +13°C° 0 mm 5 mps 750 mmHg 58%
16:00 +11°C° 0 mm 4 mps 750 mmHg 62%
17:00 +10°C° 0 mm 4 mps 750 mmHg 67%
18:00 +10°C° 0 mm 4 mps 750 mmHg 68%
19:00 +8°C° 0 mm 4 mps 750 mmHg 69%
20:00 +8°C° 0 mm 4 mps 750 mmHg 69%
21:00 +7°C° 0 mm 4 mps 750 mmHg 70%
22:00 +7°C° 0 mm 4 mps 750 mmHg 71%
23:00 +7°C° 0 mm 4 mps 750 mmHg 72%

27 October, Tuesday

Time Temperature Precipitation Wind Pressure Humidity
00:00 +8°C° 0 mm 3 mps 750 mmHg 85%
01:00 +8°C° 0 mm 3 mps 750 mmHg 86%
02:00 +8°C° 0 mm 3 mps 750 mmHg 87%
03:00 +7°C° 0 mm 4 mps 750 mmHg 87%
04:00 +6°C° 0 mm 4 mps 750 mmHg 87%
05:00 +6°C° 0 mm 4 mps 750 mmHg 87%
06:00 +7°C° 0 mm 4 mps 750 mmHg 86%
07:00 +7°C° 0 mm 4 mps 750 mmHg 84%
08:00 +7°C° 0 mm 4 mps 750 mmHg 83%
09:00 +8°C° 0 mm 5 mps 750 mmHg 75%
10:00 +10°C° 0 mm 5 mps 750 mmHg 68%
11:00 +13°C° 0 mm 5 mps 750 mmHg 60%
12:00 +13°C° 0 mm 5 mps 750 mmHg 58%
13:00 +14°C° 0 mm 5 mps 750 mmHg 56%
14:00 +14°C° 0 mm 5 mps 750 mmHg 53%
15:00 +13°C° 0 mm 5 mps 750 mmHg 58%
16:00 +11°C° 0 mm 4 mps 750 mmHg 62%
17:00 +10°C° 0 mm 4 mps 750 mmHg 67%
18:00 +10°C° 0 mm 4 mps 750 mmHg 68%
19:00 +8°C° 0 mm 4 mps 750 mmHg 69%
20:00 +8°C° 0 mm 4 mps 750 mmHg 69%
21:00 +7°C° 0 mm 4 mps 750 mmHg 70%
22:00 +7°C° 0 mm 4 mps 750 mmHg 71%
23:00 +7°C° 0 mm 4 mps 750 mmHg 72%

28 October, Wednesday

Time Temperature Precipitation Wind Pressure Humidity
00:00 +6°C° 0 mm 4 mps 750 mmHg 73%
01:00 +6°C° 0 mm 4 mps 750 mmHg 74%
02:00 +6°C° 0 mm 4 mps 750 mmHg 76%
03:00 +6°C° 0 mm 4 mps 750 mmHg 76%
04:00 +5°C° 0 mm 4 mps 750 mmHg 77%
05:00 +5°C° 0 mm 4 mps 750 mmHg 77%
06:00 +5°C° 0 mm 4 mps 750 mmHg 77%
07:00 +6°C° 0 mm 4 mps 751 mmHg 76%
08:00 +6°C° 0 mm 4 mps 751 mmHg 75%
09:00 +7°C° 0 mm 4 mps 751 mmHg 70%
10:00 +10°C° 0 mm 4 mps 751 mmHg 66%
11:00 +11°C° 0 mm 4 mps 751 mmHg 61%
12:00 +11°C° 0 mm 4 mps 751 mmHg 60%
13:00 +12°C° 0 mm 4 mps 751 mmHg 59%
14:00 +12°C° 0 mm 4 mps 750 mmHg 57%
15:00 +11°C° 0 mm 4 mps 750 mmHg 61%
16:00 +10°C° 0 mm 4 mps 750 mmHg 66%
17:00 +9°C° 0 mm 3 mps 750 mmHg 70%
18:00 +8°C° 0 mm 3 mps 750 mmHg 70%
19:00 +7°C° 0 mm 4 mps 750 mmHg 70%
20:00 +6°C° 0 mm 4 mps 750 mmHg 69%
21:00 +7°C° 0 mm 3 mps 750 mmHg 69%
22:00 +5°C° 0 mm 3 mps 750 mmHg 69%
23:00 +5°C° 0 mm 3 mps 750 mmHg 69%

29 October, Thursday

Time Temperature Precipitation Wind Pressure Humidity
00:00 +4°C° 0 mm 3 mps 750 mmHg 68%
01:00 +4°C° 0 mm 3 mps 750 mmHg 67%
02:00 +4°C° 0 mm 3 mps 750 mmHg 66%
03:00 +3°C° 0 mm 3 mps 750 mmHg 64%
04:00 +3°C° 0 mm 3 mps 750 mmHg 62%
05:00 +3°C° 0 mm 3 mps 750 mmHg 60%
06:00 +3°C° 0 mm 3 mps 750 mmHg 59%
07:00 +3°C° 0 mm 3 mps 750 mmHg 58%
08:00 +3°C° 0 mm 3 mps 750 mmHg 57%
09:00 +5°C° 0 mm 3 mps 750 mmHg 55%
10:00 +7°C° 0 mm 3 mps 750 mmHg 53%
11:00 +8°C° 0 mm 3 mps 749 mmHg 51%
12:00 +9°C° 0 mm 3 mps 749 mmHg 51%
13:00 +9°C° 0 mm 3 mps 749 mmHg 51%
14:00 +10°C° 0 mm 3 mps 749 mmHg 51%
15:00 +9°C° 0 mm 3 mps 749 mmHg 55%
16:00 +7°C° 0 mm 2 mps 749 mmHg 60%
17:00 +6°C° 0 mm 2 mps 749 mmHg 64%
18:00 +6°C° 0 mm 2 mps 749 mmHg 66%
19:00 +5°C° 0 mm 2 mps 749 mmHg 68%
20:00 +5°C° 0 mm 2 mps 749 mmHg 71%
21:00 +5°C° 0 mm 2 mps 749 mmHg 73%
22:00 +5°C° 0 mm 2 mps 749 mmHg 75%
23:00 +4°C° 0 mm 2 mps 749 mmHg 77%
Show more